User: anonymous   Login
Location: Martley
(52.2333°N, 2.3667°W)
Time: 14:26:25
(UTC+00:00)
Language:

SJ-12 - Orbit

View from above orbital plane
View from above orbital plane
View from above satellite
View from above satellite

Ground track
Ground track

The orbit data is extracted from the following two-line orbital elements,

1 36596U 10027A   20056.78281118 +.00000660 +00000-0 +62829-4 0  9991
2 36596 097.6474 048.2374 0011114 342.7999 017.2845 14.96661943528985
Epoch (UTC): 25 February 2020 18:47:14
Eccentricity: 0.0011114
inclination: 97.6474°
perigee height: 569 km
apogee height: 585 km
right ascension of ascending node: 48.2374°
argument of perigee: 342.7999°
revolutions per day: 14.96661943
mean anomaly at epoch: 17.2845°
orbit number at epoch: 52898

The dashed part of the orbit path shows where the satellite is in the earth's shadow,  

DLR